Regional Weather Roundup
Issued by NWS

Home | Current Version | Previous Version | Text Only | Print | Product List | Glossary On
Versions: 1 2 3 4 5 6 7 8 9 10 11 12 13 14 15 16 17 18 19 20 21 22 23 24 25 26 27 28 29 30 31 32 33 34 35 36 37 38 39 40 41 42 43 44 45 46 47 48 49 50
000
ASUS43 KOAX 281410
RWRNE

WEATHER ROUNDUP FOR NEBRASKA
NATIONAL WEATHER SERVICE OMAHA NE
800 AM CST SAT FEB 28 2015

NOTES: SATELLITE DATA IS BEING USED TO AUGMENT CLOUD COVER ABOVE
       12000 FEET.
       "FAIR" INDICATES FEW OR NO CLOUDS BELOW 12,000 FEET WITH NO
       SIGNIFICANT WEATHER AND/OR OBSTRUCTIONS TO VISIBILITY.

  * THESE STATIONS DO NOT REPORT WEATHER SUCH AS RAIN...SNOW OR FOG.

NEZ001>004-019>022-054>056-281500-
NEBRASKA PANHANDLE

CITY           SKY/WX    TMP DP  RH WIND       PRES   REMARKS
SCOTTSBLUFF    CLOUDY     9   5  84 SE3       30.04R
ALLIANCE       CLEAR      3   0  87 S5        30.03R WCI  -6
CHADRON        PTCLDY     7   2  80 SW7       30.07R WCI  -5
KIMBALL        PTCLDY    -3  -7  82 CALM      29.93S
SIDNEY         CLEAR      2  -2  83 S5        30.01F WCI  -8
$$

NEZ057>060-069>072-079>082-281500-
SOUTHWEST NEBRASKA

CITY           SKY/WX    TMP DP  RH WIND       PRES   REMARKS
NORTH PLATTE   CLOUDY    13   7  77 S13       30.18R WCI  -2
IMPERIAL         N/A     14   7  73 S10       30.12S WCI   1
LEXINGTON      FLURRIES  14   9  80 S15       30.25S WCI  -1
MCCOOK         CLOUDY    15   8  73 S9        30.21S WCI   3
OGALLALA       MOCLDY    12   9  86 S3        30.12S
$$

NEZ005>010-023>029-035>040-094-281500-
NORTH CENTRAL NEBRASKA

CITY           SKY/WX    TMP DP  RH WIND       PRES   REMARKS
VALENTINE      CLEAR     11   5  77 S13       30.14S WCI  -4
AINSWORTH      CLEAR      9   5  84 S12       30.17S WCI  -6
BROKEN BOW     CLOUDY    14   7  73 S10       30.22S WCI   1
O`NEILL        CLEAR      8   4  86 S9        30.27R WCI  -6
ORD            CLOUDY     9   4  80 S8        30.29R WCI  -3
THEDFORD       FLURRIES  10   7  85 S5        30.16S WCI   2
$$

NEZ041-046>049-061>064-073>077-083>087-281500-
SOUTH CENTRAL NEBRASKA

CITY           SKY/WX    TMP DP  RH WIND       PRES   REMARKS
GRAND ISLAND   MOCLDY     8   5  87 S7        30.35S WCI  -3
AURORA         LGT SNOW  11   8  87 S7        30.36R WCI   0
HASTINGS       CLOUDY     9   6  88 S7        30.32S WCI  -2
HEBRON         CLOUDY    12   8  84 SE6       30.40S WCI   3
HOLDREGE       CLOUDY    12   8  83 S9        30.27S WCI  -1
KEARNEY *      CLOUDY    10   7  85 S10       30.30S WCI  -3
YORK           FLURRIES   9   5  85 S7        30.39R WCI  -3
$$

NEZ011>018-030>034-042>045-281500-
NORTHEAST NEBRASKA

CITY           SKY/WX    TMP DP  RH WIND       PRES   REMARKS
NORFOLK        CLEAR      9   4  80 S10       30.37S WCI  -5
ALBION         CLEAR      7   3  83 SE6       30.34S WCI  -3
BLAIR          CLEAR     10   3  72 SE7       30.44S WCI  -1
COLUMBUS *     CLEAR      9  -2  61 S8        30.41R WCI  -4
FREMONT        PTCLDY    11   4  74 SE5       30.44F WCI   3
WAYNE          CLEAR      6   1  78 S7        30.40S WCI  -6
$$

NEZ050>053-065>068-078-088>093-281500-
SOUTHEAST NEBRASKA

CITY           SKY/WX    TMP DP  RH WIND       PRES   REMARKS
LINCOLN        PTCLDY     8   3  80 S6        30.46S WCI  -2
OMAHA EPPLEY   MOSUNNY   10   4  76 SE9       30.49F WCI  -3
BEATRICE       PTCLDY    11   5  76 SE5       30.44S WCI   3
FALLS CITY     MOSUNNY   14   7  73 SE9       30.49F WCI   2
NEBRASKA CITY  MOSUNNY   10   4  77 SE3       30.46F
PLATTSMOUTH    SUNNY      9   3  78 SE6       30.46F WCI  -1
$$

NEZ044-045-051>053-067-281500-
OMAHA AREA

CITY           SKY/WX    TMP DP  RH WIND       PRES   REMARKS
OMAHA EPPLEY   MOSUNNY   10   4  76 SE9       30.49F WCI  -3
BLAIR          CLEAR     10   3  72 SE7       30.44S WCI  -1
FREMONT        PTCLDY    11   4  74 SE5       30.44F WCI   3
MILLARD        CLEAR     10   3  74 SE6       30.48S WCI   0
OFFUTT AFB     SUNNY      9   4  77 E7        30.48F WCI  -2
PLATTSMOUTH    SUNNY      9   3  78 SE6       30.46F WCI  -1
WAHOO          FAIR       8   1  76 SE5       30.45S WCI  -1
$$


USA.gov is the U.S. government's official web portal to all federal, state and local government web resources and services.